Regional Weather Roundup
Issued by NWS Charleston, SC

Current Version | Previous Version | Graphics & Text | Print | Product List | Glossary On
Versions: 1 2 3 4 5 6 7 8 9 10 11 12 13 14 15 16 17 18 19 20 21 22 23 24 25 26 27 28 29 30 31 32 33 34 35 36 37 38 39 40 41 42 43 44 45 46 47 48 49 50
000
ASUS42 KCHS 282127
RWRCHS

REGIONAL WEATHER ROUNDUP
NATIONAL WEATHER SERVICE CHARLESTON SC
500 PM EDT WED JUN 28 2017

NOTE: "FAIR" INDICATES FEW OR NO CLOUDS BELOW 12,000 FEET WITH NO
SIGNIFICANT WEATHER AND/OR OBSTRUCTIONS TO VISIBILITY.

NOT ALL STATIONS ARE QUALITY CONTROLLED. USE DATA WITH CAUTION...
ESPECIALLY DEWPOINT OBSERVATIONS.

SCZ027-030-031-034>040-042>050-282200-
...SOUTHEAST SOUTH CAROLINA...

CITY           SKY/WX    TMP DP  RH WIND       PRES   REMARKS
N CHARLESTON   MOSUNNY   85  59  41 E13       30.13F
WATERFRONT PRK   N/A     83  69  62 E13       30.13F
JOHNS ISLAND   FAIR      84  68  58 NE15      30.14S
PINOPOLIS        N/A     84  63  48 E7        30.07F
MONCKS CORNER  FAIR      84  55  37 NE7       30.13F
SUMMERVILLE    FAIR      86  63  45 CALM      30.14S
BEAUFORT MCAS  PTSUNNY   85  70  60 E12       30.13S
BEAUFORT ARPT  FAIR      81  68  65 E15       30.12F
HILTON HEAD IS MOSUNNY   82  72  69 NE7       30.13F
WALTERBORO     PTCLDY    82  61  47 E12       30.14S
ALLENDALE      FAIR      86  66  51 VRB7      30.11S

...SOUTHERN MIDLANDS AND PEE DEE...

CITY           SKY/WX    TMP DP  RH WIND       PRES   REMARKS
GEORGETOWN     FAIR      82  57  42 E10       30.16S
KINGSTREE      FAIR      82  54  36 E5        30.14S
ORANGEBURG     MOSUNNY   86  58  38 E6        30.13F
BARNWELL       FAIR      88  64  45 E9        30.12S
AIKEN          FAIR      84  57  39 SE6       30.16S
MANNING        FAIR      86  52  30 E7G17     30.13F
COLUMBIA       MOSUNNY   86  55  34 E7        30.13F
SUMTER         MOSUNNY   88  56  34 E7        30.12F
FLORENCE       SUNNY     86  55  34 NE9       30.15F
MYRTLE BEACH   MOSUNNY   82  63  51 SE13      30.16F
N MYRTLE BEACH SUNNY     82  60  47 SE10      30.15F

$$

GAZ063-065-086>088-099>101-113>116-118-119-134>141-150-282200-
...SOUTHEAST GEORGIA...

CITY           SKY/WX    TMP DP  RH WIND       PRES   REMARKS
SAVANNAH ARPT  PTSUNNY   86  66  51 E15       30.12S
HUNTER AAF     CLOUDY    84  70  62 E12G17    30.09S
FORT STEWART   MOSUNNY   85  65  50 E8        30.09S
STATESBORO     CLOUDY    87  67  51 SE7       30.12R
SYLVANIA       CLOUDY    83  70  65 SE3       30.13S
CLAXTON        FAIR      84  66  54 E9        30.10F

...CSRA...CENTRAL AND FAR SOUTHEAST GEORGIA...

CITY           SKY/WX    TMP DP  RH WIND       PRES   REMARKS
THOMSON        PTSUNNY   84  62  46 S6        30.16S
AUGUSTA-BUSH   MOSUNNY   89  64  43 SE12      30.10F HX  90
AUGUSTA-DANIEL SUNNY     88  58  36 SE12      30.12F
SWAINSBORO     MOCLDY    86  64  48 E7        30.11F
VIDALIA        MOSUNNY   88  68  51 E8        30.11F HX  91
EASTMAN        FAIR      90  49  25 E9        30.11F
HAZLEHURST     FAIR      87  69  55 E8        30.08F HX  91
ALMA           MOSUNNY   86  66  51 E12       30.08F
WAYCROSS       MOSUNNY   88  74  63 SE13      30.08F HX  96
JESUP          MOCLDY    86  64  48 SE9       30.10S
BAXLEY         FAIR      88  70  55 E8        30.09R HX  92
BRUNSWICK      CLOUDY    82  72  69 E13       30.11S
SAINT SIMONS   CLOUDY    84  71  65 NE15      30.09F

$$

SCZ027-028-034-036>038-045-046-048>050-GAZ119-141-282200-
...LAKE AND SUPPLEMENTAL COASTAL OBSERVATIONS...

STATION/POSITION TIME  TEMP    WIND        PRES    WAVE   SWELL
                       AIR SEA DIR/SP/G            HT/PER HT/PER/DIR
                 (UTC) (F)     (DEG/KT/KT) (MB)    (FT/S) (FT/S/D)
WINYAH BAY       2030   80     100/  9     1021.0S
LAKE MURRAY      2120   87     180/  5/  6 1019.3
ACE BASIN NERRS  2045   85      80/  4     1020.0F
FORT PULASKI     2100   81 83   90/ 16/ 19 1020.3
SAPELO ISLAND    2100   83      80/  9     1019.0

$$

ANZ835-935-AMZ111-154-330-350-352-354-370-450-454-472-282200-
...C-MAN AND BUOY OBSERVATIONS...

STATION/POSITION TIME  TEMP    WIND        PRES    WAVE   SWELL
                       AIR SEA DIR/SP/G            HT/PER HT/PER/DIR
                 (UTC) (F)     (DEG/KT/KT) (MB)    (FT/S) (FT/S/D)
BUOY 41004       2110   80 80   50/ 16/ 19 1020.0
BUOY 41008       2050   81 82   70/ 16/ 17 1018.9F   3/ 5   2/120/ 8
FOLLY BEACH CMAN 2100   81      70/ 14/ 17 1021.2F
CAPERS NEARSHORE 2108   85 83   80/ 14/ 19 1020.4F
FRIPP NEARSHORE  2108   81 83   80/ 16/ 21 1019.6S


STATION/POSITION TIME  TEMP    WIND        PRES    WAVE   SWELL
                       AIR SEA DIR/SP/G            HT/PER HT/PER/DIR
                 (UTC) (F)     (DEG/KT/KT) (MB)    (FT/S) (FT/S/D)
5E ST. MARYS GA  2100      81                N/A     3/ 5
FRYING PAN BUOY  2110   79 80   50/ 12/ 14 1021.0
BUOY 41025       2050   78 83   40/  8/ 10 1021.5F   3/ 6   2/ 60/ 6
CAPE LOOKOUT NC  2100   79      70/ 11/ 12 1021.4R
BUOY 41002       2050   80 81   60/ 14/ 16 1019.4F   3/ 6   2/130/ 8
BUOY 41010       2110   81 84   80/  8/ 10 1017.5
ST AUGUSTINE FL  2100   81 82   30/  8/  9 1018.9R


$$



USA.gov is the U.S. government's official web portal to all federal, state and local government web resources and services.